Regional Weather Roundup
Issued by NWS

Home | Current Version | Previous Version | Text Only | Print | Product List | Glossary Off
Versions: 1 2 3 4 5 6 7 8 9 10 11 12 13 14 15 16 17 18 19 20 21 22 23 24 25 26 27 28 29 30 31 32 33 34 35 36 37 38 39 40 41 42 43 44 45 46 47 48 49 50

537
ASUS45 KBOU 210907
RWRCO

WEATHER ROUNDUP FOR COLORADO
NATIONAL WEATHER SERVICE DENVER/BOULDER CO
300 AM MDT FRI JUL 21 2017

NOTE: "FAIR" INDICATES FEW OR NO CLOUDS BELOW 12000 FEET WITH NO
SIGNIFICANT WEATHER AND/OR OBSTRUCTIONS TO VISIBILITY.

COZ001>005-013-030-031-211000-
...NORTHWEST COLORADO...

CITY           SKY/WX    TMP DP  RH WIND       PRES   REMARKS
CRAIG          CLOUDY    64  50  60 NW5       30.26R
HAYDEN         MOCLDY    63  45  51 SW6       30.28R
MEEKER         FAIR      61  56  83 SE3       30.26R
RABBIT EARS PA CLOUDY    54  41  62 W3        30.55S
STEAMBOAT SPGS CLOUDY    58  48  70 W3        30.29R
WALDEN         CLOUDY    55  46  71 CALM      30.38F
$$

COZ006>008-011-211000-
...WEST CENTRAL VALLEYS...

CITY           SKY/WX    TMP DP  RH WIND       PRES   REMARKS
GRAND JUNCTION FAIR      71  54  54 CALM      30.11S
MONTROSE       FAIR      66  51  58 SE14      30.22S
EAGLE          FAIR      58  50  75 CALM      30.30F
RIFLE          FAIR      65  56  72 CALM      30.18F
DELTA          FAIR      70  51  51 SE3       30.17S
NUCLA          FAIR      64  50  59 E7        30.26F
$$

COZ017>023-064>068-211000-
...SOUTHWEST COLORADO...

CITY           SKY/WX    TMP DP  RH WIND       PRES   REMARKS
DURANGO        CLOUDY    60  51  72 NE3       30.27F
CORTEZ         FAIR      60  58  92 NE5       30.23F
PAGOSA SPRINGS FAIR      57  50  76 CALM      30.36S
TELLURIDE      FAIR      53  49  86 CALM      30.48F
WOLF CREEK PAS FAIR      45  41  87 SW10      30.70S
$$

COZ009-010-012-014-032>034-037-058>063-211000-
...CENTRAL COLORADO...

CITY           SKY/WX    TMP DP  RH WIND       PRES   REMARKS
ASPEN          FAIR      56  50  80 CALM      30.35S
BUENA VISTA    FAIR      57  48  71 NW7       30.36S
COPPER MTN     FAIR      54  37  54 W7        30.65F
BERTHOUD PASS  FAIR      45  30  57 NW21      30.67F
COTTONWOOD PAS FAIR      59  41  51 NW3       30.49S
GUNNISON       FAIR      55  49  80 N5        30.36F
KREMMLING      FAIR      59  54  82 CALM      30.34F
LEADVILLE      FAIR      45  41  86 NE5       30.49F
MONARCH PASS   FAIR      48  41  76 W16       30.74F
SALIDA         FAIR      59  50  72 W6        30.39F
SUNLIGHT       MOCLDY    50  41  71 W5        30.59S
WILKERSON PASS FAIR      52  37  58 W6        30.61F
$$

COZ069>075-211000-
...SAN LUIS VALLEY/SANGRE DE CRISTO MOUNTAINS...

CITY           SKY/WX    TMP DP  RH WIND       PRES   REMARKS
ALAMOSA        FAIR      57  53  86 SE5       30.32F
DEL NORTE      NOT AVBL
LA VETA PASS   NOT AVBL
SAGUACHE         N/A    N/A N/A N/A MISG        N/A
$$

COZ035-036-038>040-211000-
...NORTHERN COLORADO FRONT RANGE...

CITY           SKY/WX    TMP DP  RH WIND       PRES   REMARKS
DENVER INTL AP MOCLDY    71  51  49 CALM      30.08F
DMNS CITY PARK   N/A     71  52  50 W2G9      30.08R
AURORA         PTCLDY    69  53  57 S9        30.10F
FRONT RANGE AP FAIR      72  52  49 S5        30.11R
ERIE MUNI ARPT FAIR      67  51  57 N3        30.08R
BOULDER MUN AP FAIR      72  46  40 CALM      30.09R
CENTENNIAL     FAIR      70  50  49 S6        30.12F
BROOMFIELD     FAIR      72  46  40 NW10      30.11R
FORT COLLINS   FAIR      72  53  51 NE14      30.08F
LONGMONT       FAIR      71  51  49 CALM      30.09S
$$

COZ041-046-047-076>085-087-088-211000-
...PIKES PEAK/PALMER DIVIDE AND SOUTHERN FOOTHILLS...

CITY           SKY/WX    TMP DP  RH WIND       PRES   REMARKS
COLO. SPRINGS  FAIR      70  52  52 N5        30.16F
A. F. ACADEMY  FAIR      62  50  65 N3        30.18S
SCHRIEVER AFB  FAIR      69  47  44 NW5       30.16F
CHEYENNE MTN   FAIR      74  47  38 SW7       30.17F
ELLICOTT       FAIR     N/A N/A N/A CALM      30.14F
FALCON           N/A     65  48  53 W14       30.22S
FORT CARSON    FAIR      67  51  57 NW8       30.12F
LIMON          FAIR      64  57  78 N5        30.09F
MONUMENT HILL  FAIR      61  46  59 W8        30.25R
CANON CITY     CLEAR     72  54  53 W12       30.11F
WALSENBURG     FAIR      73  48  40 W15G23    30.16F
TRINIDAD       FAIR      71  47  42 W8        30.15F
$$

COZ042>045-048>051-090-091-211000-
...NORTHEAST COLORADO...

CITY           SKY/WX    TMP DP  RH WIND       PRES   REMARKS
GREELEY ARPT   FAIR      70  54  56 N8        30.08F
AKRON          FAIR      72  52  49 W17       30.05R
BURLINGTON     FAIR      68  58  70 W8        30.00S
WRAY           NOT AVBL
YUMA           FAIR      68  52  56 W10       29.98F
STERLING       FAIR      73  57  56 NW14      29.99F
HOLYOKE        FAIR      72  66  83 W10       29.96R
FORT MORGAN    FAIR      73  50  44 N10       30.06R
$$

COZ086-089-092>099-211000-
...SOUTHEAST COLORADO...

CITY           SKY/WX    TMP DP  RH WIND       PRES   REMARKS
PUEBLO         FAIR      73  51  46 NW5       30.04F
LA JUNTA       FAIR      69  55  60 SW6       30.00S
LAMAR          FAIR      72  52  49 S9        29.95F
SPRINGFIELD      N/A     69  51  52 S12       30.02F
$$




USA.gov is the U.S. government's official web portal to all federal, state and local government web resources and services.